loading
DOY 203 | 2024-07-21T10:03:45Z

STARLINK-11201, 60113

Orbit data source: Space-Track

STARLINK-11201, 60113 is a payload satellite owned by SpaceX/Seattle (US) in LEO that was launched on Mon, 24 Jun 2024 UTC via a Falcon 9 launch vehicle from the Air Force Western Test Range (AFWTR). Payloads include a variety of satellites, spacecraft, and rockets equipped with specific instruments for various scientific and technological missions. These include communications satellites like Starlink; space stations such as the ISS; scientific satellites like the Hubble; Earth observation satellites from companies like Planet Labs, Umbra, and HawkEye 360; GPS; miniature CubeSats for education and research; and military/defense satellites.

Next visibility unknown
Loading greatness...
STARLINK-11201 details
NORAD ID60113
COSPAR ID
2024-118A
Orbit
LEO
Last TLE update22 hours ago
Origin
Flag of USSpaceX/Seattle (US)
ManufacturerSpaceX/Seattle
BusStarlink V2M
MotorUnknown
Mass750 kg wet, ~700 kg dry
Launch date (UTC)
2024-06-24 (1 month ago)
Launch vehicle
Falcon 9
Launch site
Air Force Western Test Range (AFWTR)
Object type
Payload
Rocket body
Debris
Radar Cross SectionLarge (>1 m²)
Predictive object data (real-time)
Latitude-52.8976°
Longitude90.06093°
Altitude358.124 km
Speed7.693 km/s
Apparent Right ascension12h 09m 29s
Apparent Declination-47° 55' 51"
Sunlit
Object is in daylight
Predictive observer data (real-time)
Local Sidereal Time23:01:57
Azimuth230.936° WSW
Elevation-75.483°
Doppler factor1
Orbital elements
Apogee341.031 km
Perigee338.951 km
Semi-major axis6,718.128 km
Eccentricity0.0001548
Inclination53.1538°
RAAN287.6167°
Arg. of periapsis116.2088°
True anomaly243.89327°
Mean anomaly243.9092°
Mean motion3.94158 °/min
BSTAR0.001017
Period91.33 mins
Definitive object data (Epoch: 2024-07-20T11:36:05.729Z)
Latitude-0.00005°
Longitude174.84858°
Altitude341.103 km
Speed7.705 km/s
True Right ascension19h 10m 27s
True Declination0° 00' 00"
Sunlit
Object was in full shadow at TLE epoch
TLE from 22 hours ago
0 STARLINK-11201
1 60113U 24118A   24202.48339965  .00169111  00000-0  10170-2 0  9994
2 60113  53.1538 287.6167 0001548 116.2088 243.9092 15.76724414  5059
Epoch: 2024-07-20T11:36Z
No data available

STARLINK-11201 Visibility forecast

Observer location: 39.9160978°, -105.1181434

STARLINK-11201 is not visible in the next 10 days
Span
Click to sort rows by Start time (UTC) header in descending order
Start Az.
Max El. time (UTC)
Max El. Az.
Max El.
End time (UTC)
End Az.